User: anonymous   Login
Location: Dürabuch
(48.2640°N, 11.2185°E)
Time: 17:57:32
(UTC+00:00)
Language:

Cosmos 1703 Rocket - Orbit

View from above orbital plane
View from above orbital plane
View from above satellite
View from above satellite

Ground track
Ground track

The orbit data is extracted from the following two-line orbital elements,

1 16263U 85108B   24196.15685976  .00000831  00000-0  95833-4 0  9993
2 16263  82.5016 209.1551 0021132 112.8431 316.1377 14.84332111 87421
Epoch (UTC): 14 July 2024 03:45:52
Eccentricity: 0.0021132
inclination: 82.5016°
perigee height: 601 km
apogee height: 630 km
right ascension of ascending node: 209.1551°
argument of perigee: 112.8431°
revolutions per day: 14.84332111
mean anomaly at epoch: 316.1377°
orbit number at epoch: 8742

The dashed part of the orbit path shows where the satellite is in the earth's shadow,  

DLR